Location: ??????????
(54.8537°N, 38.8755°E)
Time: 21:15:07
(UTC+00:00)

Tiros 1 - Pass Details

Date: 13 September 2024
Orbit: 623 x 654 km, 48.4° (Epoch: 09 October)

Event Time Altitude Azimuth Distance (km) Brightness Sun altitude
Rises 17:29:57 0° 265° (W) 2,913 11.5 -15.1°
Reaches altitude 10° 17:32:26 10° 256° (WSW) 2,009 10.3 -15.4°
Maximum altitude 17:36:34 33° 193° (SSW) 1,070 8.1 -15.9°
Enters shadow 17:38:21 24° 152° (SSE) 1,303 8.2 -16.1°
Drops below altitude 10° 17:40:43 10° 130° (SE) 2,024 - -16.4°
Sets 17:43:13 0° 120° (ESE) 2,938 - -16.7°
